Вернуться в каталог

ONEWEB-0112

АктивенСвязьPO
NORAD 48051·PAYLOAD·🇬🇧 United Kingdom

Запущен Mar 25, 2021 с Vostochny Cosmodrome

Loading…

Ближайшие Пролёты (ближайшие 24 часа)

TLE

СвежийSource: CelesTrak SupGP

Эпоха: Sep 14, 2026, 22:19 UTC

1 48051C 21025K   26257.93001574  .00000858  00000+0  23518-2 0  2577
2 48051  87.8923 302.3617 0001720  91.6967 301.2289 13.13466661    10

Отслеживайте ONEWEB-0112 в реальном времени с AllMySat

Download on the App Store